Regional Weather Roundup
Issued by NWS

Home | Current Version | Previous Version | Text Only | Print | Product List | Glossary Off
Versions: 1 2 3 4 5 6 7 8 9 10 11 12 13 14 15 16 17 18 19 20 21 22 23 24 25 26 27 28 29 30 31 32 33 34 35 36 37 38 39 40 41 42 43 44 45 46 47 48 49 50

209
ASUS44 KMEG 120500
RWRTN
TENNESSEE HOURLY STATE WEATHER ROUNDUP
NATIONAL WEATHER SERVICE MEMPHIS TN
1100 PM CST MON DEC 11 2017

TNZ002-004-019-021-049-052-054-088>092-120600-
WEST TENNESSEE

CITY           SKY/WX    TMP DP  RH WIND       PRES   REMARKS
MEMPHIS INTL   MOCLDY    52  25  35 NW6       30.00S
NWS MEMPHIS      N/A     49 N/A N/A MISG        N/A
JACKSON        PTCLDY    48  27  44 W6        29.97F
DYERSBURG      CLOUDY    52  29  41 NW14      29.99R
$$

TNZ008-025-027-028-033-062-065-066-120600-
NORTH MIDDLE TENNESSEE

CITY           SKY/WX    TMP DP  RH WIND       PRES   REMARKS
NASHVILLE      MOCLDY    51  26  37 NW9       29.91R
CLARKSVILLE    CLOUDY    48  25  40 NW8       29.91S
SMYRNA         CLOUDY    50  28  42 NW13      29.92R
CROSSVILLE     CLOUDY    48  28  46 W10       29.86F
$$

TNZ061-075-076-078-094-096-097-120600-
SOUTH MIDDLE TENNESSEE

CITY           SKY/WX    TMP DP  RH WIND       PRES   REMARKS
WINCHESTER     CLEAR     52  30  43 W9        29.90S
$$

TNZ017-018-042-046-047-120600-
NORTHEAST TENNESSEE

CITY           SKY/WX    TMP DP  RH WIND       PRES   REMARKS
TRI CITIES     PTCLDY    32  29  88 CALM      29.84F
$$

TNZ012-013-036-069-073-074-120600-
CENTRAL EAST TENNESSEE

CITY           SKY/WX    TMP DP  RH WIND       PRES   REMARKS
KNOXVILLE      MOCLDY    48  34  58 SW16      29.85F
OAK RIDGE      CLOUDY    45  34  65 CALM      29.88F
$$

TNZ083-085-099-120600-
SOUTHEAST TENNESSEE

CITY           SKY/WX    TMP DP  RH WIND       PRES   REMARKS
CHATTANOOGA    CLEAR     38  32  79 CALM      29.91F
$$

SKY/WX REPORTED AS FAIR MEANS FEW OR NO CLOUDS BELOW
12 THOUSAND FEET.





USA.gov is the U.S. government's official web portal to all federal, state and local government web resources and services.